Regional Weather Roundup
Issued by NWS Spokane, WA

Home | Current Version | Previous Version | Text Only | Print | Product List | Glossary On
Versions: 1 2 3 4 5 6 7 8 9 10 11 12 13 14 15 16 17 18 19 20 21 22 23 24 25 26 27 28 29 30 31 32 33 34 35 36 37 38 39 40 41 42 43 44 45 46 47 48 49 50
000
NZUS01 KOTX 291910
RWROTX
EASTERN WASHINGTON/NORTHERN IDAHO ROUNDUP
NATIONAL WEATHER SERVICE, SPOKANE WA
1200 PM PDT SUN MAY 29 2016

Note: "fair" indicated few or no clouds below 12,000 feet with no
significant weather and/or obstructions to visibility.

...NORTHEAST WASHINGTON AND NORTHERN IDAHO PANHANDLE...

CITY           SKY/WX    TMP DP  RH WIND       PRES   REMARKS
SPOKANE INTL   PTSUNNY   66  40  38 S16G24    29.98F
SPOKANE DOWNTO PTSUNNY   70  41  34 SW16G24   29.99S
COEUR D ALENE  PTSUNNY   66  43  42 W13G21    29.96S
DEER PARK      PTSUNNY   69  40  34 SW16G23   29.98F
SANDPOINT      MOSUNNY   63  46  55 SE6       29.97F
BONNERS FERRY  FAIR      64  45  48 SE6       29.96F

...SOUTHEAST WASHINGTON AND SOUTHERN IDAHO PANHANDLE...

CITY           SKY/WX    TMP DP  RH WIND       PRES   REMARKS
WALLA WALLA    MOSUNNY   70  46  42 SW10      30.01F
PULLMAN/MOSCOW CLOUDY    64  45  49 NW9       30.04S
LEWISTON       MOSUNNY   69  46  43 CALM      30.00F
LOWELL           N/A     70  43  37 S9        29.96F

...COLUMBIA BASIN...

CITY           SKY/WX    TMP DP  RH WIND       PRES   REMARKS
EPHRATA        SUNNY     71  36  27 S9G22     29.96F
MOSES LAKE     SUNNY     73  39  29 W14G21    29.98F
TRI CITIES     SUNNY     74  42  31 SW14G20   29.99F
HERMISTON      SUNNY     74  43  32 SW16      30.00F
PENDLETON      MOSUNNY   71  43  36 W16       30.01F

...EAST SLOPES CASCADES...

CITY           SKY/WX    TMP DP  RH WIND       PRES   REMARKS
THE DALLES     SUNNY     70  44  39 NW20G31   30.05S
YAKIMA         MOSUNNY   74  40  29 N7        30.00S
ELLENSBURG     SUNNY     66  40  38 NW21G30   30.01S
STAMPEDE PASS  CLOUDY    43  37  79 W8        30.10R
WENATCHEE      SUNNY     68  36  30 NW9       29.97F
OMAK           SUNNY     67  39  35 VRB5      29.95F

...SOUTHERN BRITISH COLUMBIA...

CITY           SKY/WX    TMP DP  RH WIND       PRES   REMARKS
PENTICTON      PTSUNNY   59  48  67 NE9       30.01R
CASTLEGAR      PTSUNNY   64  45  48 SE8       29.91F
CRANBROOK      LGT RAIN  54  46  76 N3        29.95F

...WESTERN MONTANA...

CITY           SKY/WX    TMP DP  RH WIND       PRES   REMARKS
MISSOULA       MOSUNNY   65  42  43 E8        30.01F

...NEIGHBORING CITIES...

CITY           SKY/WX    TMP DP  RH WIND       PRES   REMARKS
SEATTLE        CLOUDY    55  49  80 NE15      30.15R
CALGARY        PTSUNNY   64  32  29 SE5       29.84F



USA.gov is the U.S. government's official web portal to all federal, state and local government web resources and services.